Chicopee, MA

4:43 PM EST on November 17, 2017 (GMT -0500)
Westover Air Reserve Base / Metropolitan Airport

Weather History for KCEF - October, 2012

Change the Weather History Date:

Tuesday, October 9, 2012

  Actual Average Record
Temperature  
Mean Temperature 50 °F -  
Max Temperature 56 °F 62 °F 85 °F (2011)
Min Temperature 44 °F 40 °F 24 °F (2001)
Degree Days  
Heating Degree Days 14    
Moisture  
Dew Point 47 °F    
Average Humidity 87    
Maximum Humidity 100    
Minimum Humidity 67    
Precipitation  
Precipitation 0.01 in - - ()
Sea Level Pressure  
Sea Level Pressure 30.23 in    
Wind  
Wind Speed 4 mph (NE)    
Max Wind Speed 10 mph    
Max Gust Speed -    
Visibility 10 miles    
Events Rain    
Averages and records for this station are not official NWS values.
T = Trace of Precipitation, MM = Missing Value Source: NWS Daily Summary

Daily Weather History Graph

Daily Weather History Graph

Search for Another Location

Airport or City:

Trip Planner

Search our weather history database for the weather conditions in past years. The results will help you decide how hot, cold, wet, or windy it might be!

Date:

Astronomy

Oct. 09, 2012 Rise Set
Actual Time 6:56 AM EDT 6:17 PM EDT
Civil Twilight 6:28 AM EDT 6:45 PM EDT
Nautical Twilight 5:55 AM EDT 7:17 PM EDT
Astronomical Twilight 5:23 AM EDT 7:50 PM EDT
Moon 12:23 AM EDT (10/9) 2:48 PM EDT (10/9)
Length of Visible Light 12h 16m
Length of Day
11h 20m
Last Quarter, 37% of the Moon is Illuminated
Oct 9
Last Quarter
Oct 15
New
Oct 21
First Quarter
Oct 29
Full
Nov 6
Last Quarter

Hourly Weather History & Observations

Time (EDT) Temp. Windchill Dew Point Humidity Pressure Visibility Wind Dir Wind Speed Gust Speed Precip Events Conditions
12:55 AM 44.1 °F - 43.5 °F 98% 30.29 in 10.0 mi Calm Calm - N/A   Overcast
1:55 AM 44.6 °F - 44.1 °F 98% 30.28 in 10.0 mi Calm Calm - N/A   Overcast
2:55 AM 44.8 °F 43.3 °F 44.2 °F 98% 30.27 in 10.0 mi North 3.5 mph - N/A   Overcast
3:50 AM 44.6 °F 42.2 °F 44.6 °F 100% 30.27 in 10.0 mi NNW 4.6 mph - N/A   Overcast
3:53 AM 44.6 °F 43.1 °F 44.6 °F 100% 30.27 in 10.0 mi North 3.5 mph - N/A   Overcast
3:55 AM 45.3 °F 44.0 °F 44.8 °F 98% 30.27 in 10.0 mi North 3.5 mph - N/A   Overcast
3:59 AM 44.6 °F - 44.6 °F 100% 30.27 in 10.0 mi Calm Calm - N/A   Overcast
4:55 AM 45.1 °F 42.0 °F 44.6 °F 98% 30.27 in 10.0 mi NNE 5.8 mph - N/A   Overcast
5:55 AM 45.3 °F 43.0 °F 44.8 °F 98% 30.27 in 10.0 mi North 4.6 mph - N/A   Overcast
6:16 AM 44.6 °F 42.2 °F 44.6 °F 100% 30.26 in 10.0 mi NNE 4.6 mph - N/A   Overcast
6:19 AM 44.6 °F 43.1 °F 44.6 °F 100% 30.26 in 10.0 mi NNE 3.5 mph - N/A   Overcast
6:55 AM 45.7 °F 42.7 °F 45.1 °F 98% 30.26 in 10.0 mi NNE 5.8 mph - N/A   Overcast
7:55 AM 46.0 °F 43.9 °F 45.5 °F 98% 30.27 in 10.0 mi NNE 4.6 mph - N/A   Mostly Cloudy
8:03 AM 46.4 °F 43.5 °F 44.6 °F 93% 30.27 in 10.0 mi North 5.8 mph - N/A   Light Drizzle
8:16 AM 46.4 °F 43.5 °F 46.4 °F 100% 30.27 in 10.0 mi NE 5.8 mph - N/A   Mostly Cloudy
8:17 AM 46.4 °F 43.5 °F 46.4 °F 100% 30.27 in 10.0 mi NE 5.8 mph - N/A   Light Drizzle
8:34 AM 46.4 °F 45.2 °F 46.4 °F 100% 30.27 in 10.0 mi ENE 3.5 mph - N/A   Mostly Cloudy
8:41 AM 46.4 °F 43.5 °F 46.4 °F 100% 30.27 in 10.0 mi NE 5.8 mph - N/A Rain Light Rain
8:53 AM 46.4 °F 44.3 °F 46.4 °F 100% 30.27 in 10.0 mi NNE 4.6 mph - N/A   Mostly Cloudy
8:55 AM 46.8 °F - 46.2 °F 98% 30.27 in 10.0 mi NNE 5.8 mph - 0.00 in   Mostly Cloudy
9:02 AM 46.4 °F 43.5 °F 46.4 °F 100% 30.27 in 10.0 mi North 5.8 mph - N/A   Light Drizzle
9:19 AM 48.2 °F - 46.4 °F 93% 30.26 in 10.0 mi NE 8.1 mph - N/A   Partly Cloudy
9:55 AM 49.6 °F - 47.5 °F 92% 30.26 in 10.0 mi NNE 5.8 mph - 0.00 in   Mostly Cloudy
10:11 AM 50.0 °F - 48.2 °F 94% 30.27 in 10.0 mi North 6.9 mph - N/A   Scattered Clouds
10:55 AM 54.3 °F - 48.7 °F 81% 30.26 in 10.0 mi NNE 9.2 mph - N/A   Overcast
11:48 AM 55.4 °F - 48.2 °F 77% 30.24 in 10.0 mi NNE 10.4 mph - N/A   Overcast
11:50 AM 55.4 °F - 48.2 °F 77% 30.24 in 10.0 mi NNE 10.4 mph - N/A   Overcast
11:51 AM 55.4 °F - 48.2 °F 77% 30.24 in 10.0 mi NNE 10.4 mph - N/A   Overcast
11:55 AM 55.0 °F - 48.9 °F 80% 30.24 in 10.0 mi NE 10.4 mph - N/A   Overcast
12:03 PM 55.4 °F - 48.2 °F 77% 30.24 in 10.0 mi NE 10.4 mph - N/A   Overcast
12:08 PM 55.4 °F - 48.2 °F 77% 30.24 in 10.0 mi NE 9.2 mph - N/A   Overcast
12:55 PM 54.7 °F - 48.7 °F 80% 30.22 in 10.0 mi ENE 8.1 mph - N/A   Overcast
1:55 PM 54.7 °F - 49.1 °F 81% 30.21 in 10.0 mi NE 9.2 mph - N/A   Overcast
2:26 PM 55.4 °F - 48.2 °F 77% 30.20 in 6.0 mi East 5.8 mph - N/A   Haze
2:27 PM 55.4 °F - 48.2 °F 77% 30.20 in 8.0 mi East 5.8 mph - N/A   Overcast
2:35 PM 55.4 °F - 48.2 °F 77% 30.20 in 10.0 mi ENE 6.9 mph - N/A   Overcast
2:42 PM 55.4 °F - 48.2 °F 77% 30.20 in 10.0 mi ENE 5.8 mph - N/A   Overcast
2:55 PM 55.2 °F - 48.6 °F 78% 30.19 in 10.0 mi ENE 5.8 mph - 0.01 in   Overcast
3:23 PM 55.4 °F - 48.2 °F 77% 30.19 in 10.0 mi NNE 6.9 mph - N/A   Overcast
3:24 PM 55.4 °F - 48.2 °F 77% 30.19 in 10.0 mi NNE 6.9 mph - N/A   Overcast
3:26 PM 55.4 °F - 48.2 °F 77% 30.19 in 10.0 mi NNE 5.8 mph - N/A   Overcast
3:55 PM 56.5 °F - 48.4 °F 74% 30.18 in 10.0 mi North 6.9 mph - N/A   Overcast
4:34 PM 57.2 °F - 46.4 °F 67% 30.17 in 10.0 mi East 6.9 mph - N/A   Overcast
4:55 PM 56.1 °F - 47.3 °F 72% 30.17 in 10.0 mi East 4.6 mph - N/A   Overcast
5:55 PM 55.0 °F - 48.0 °F 77% 30.17 in 10.0 mi Calm Calm - N/A   Overcast
6:55 PM 54.0 °F - 48.0 °F 80% 30.17 in 10.0 mi ENE 5.8 mph - N/A   Overcast
7:11 PM 53.6 °F - 48.2 °F 82% 30.17 in 10.0 mi ENE 6.9 mph - N/A   Overcast
7:55 PM 53.6 °F - 48.0 °F 81% 30.17 in 10.0 mi Variable 3.5 mph - N/A   Overcast
8:32 PM 53.6 °F - 48.2 °F 82% 30.17 in 10.0 mi ENE 4.6 mph - N/A   Overcast
8:55 PM 53.1 °F - 47.7 °F 82% 30.16 in 10.0 mi ENE 3.5 mph - N/A   Overcast
9:22 PM 53.6 °F - 48.2 °F 82% 30.17 in 10.0 mi Calm Calm - N/A   Overcast
9:28 PM 53.6 °F - 48.2 °F 82% 30.17 in 10.0 mi East 3.5 mph - N/A   Overcast
9:40 PM 53.6 °F - 48.2 °F 82% 30.17 in 10.0 mi ENE 3.5 mph - N/A   Overcast
9:55 PM 52.7 °F - 48.0 °F 84% 30.16 in 10.0 mi NE 4.6 mph - N/A   Overcast
10:55 PM 52.7 °F - 46.2 °F 79% 30.16 in 10.0 mi Variable 3.5 mph - N/A   Overcast
11:55 PM 51.6 °F - 47.1 °F 85% 30.13 in 10.0 mi East 3.5 mph - N/A   Overcast